Location: Lecco
(45.8566°N, 9.3977°E)
Time: 04:30:28
(UTC+02:00)

Transit 4A - Pass Details

Date: 18 August 2020
Orbit: 863 x 982 km, 66.8° (Epoch: 23 September)

Event Time Altitude Azimuth Distance (km) Brightness Sun altitude
Rises 17:39:28 0° 325° (NW) 3,662 11.3 27.6°
Reaches altitude 10° 17:42:02 10° 324° (NW) 2,723 10.8 27.2°
Maximum altitude 17:48:23 73° 241° (WSW) 1,023 8.9 26.1°
Drops below altitude 10° 17:54:46 10° 158° (SSE) 2,725 10.3 25.0°
Sets 17:57:20 0° 156° (SSE) 3,665 10.9 24.6°
